Regional Weather Roundup
Issued by NWS State College, PA

Home | Current Version | Previous Version | Graphics & Text | Print | Product List | Glossary On
Versions: 1 2 3 4 5 6 7 8 9 10 11 12 13 14 15 16 17 18 19 20 21 22 23 24 25 26 27 28 29 30 31 32 33 34 35 36 37 38 39 40 41 42 43 44 45 46 47 48 49 50
000
ASUS41 KCTP 240803
RWRCTP

REGIONAL WEATHER ROUNDUP
NATIONAL WEATHER SERVICE STATE COLLEGE PA
400 AM EDT SUN JUL 24 2016

Note: "fair" indicates few or no clouds below 12,000 feet with no
significant weather and/or obstructions to visibility.

* = STATION THAT DOES NOT REPORT PRECIPITATION /E.G. RAIN...SNOW...ETC/
    THUNDER OR FOG.

PAZ002>004-007>009-013>016-020>023-029>032-240900-
WESTERN PENNSYLVANIA

CITY           SKY/WX    TMP DP  RH WIND       PRES   REMARKS
ERIE           CLOUDY    67  62  84 S6        30.00S
MEADVILLE      CLOUDY    64  58  80 CALM      30.03S
FRANKLIN*      CLOUDY    61  57  88 CALM      30.06S
NEW CASTLE     FAIR      63  61  93 CALM      30.03S
BEAVER COUNTY  NOT AVBL
BUTLER*        CLEAR     64  61  88 CALM      30.05S
PITTSBURGH INT PTCLDY    69  65  86 S3        30.02R
PITTSBURGH     CLEAR     71  68  90 SE5       30.02R FOG
INDIANA*       PTCLDY    66  64  94 CALM      30.07S
LATROBE        CLEAR     66  66 100 CALM      30.03S
WASHINGTON CO* CLOUDY    66  64  94 CALM      30.03S VSB 1/4
$$

PAZ004>006-010>012-017>019-024>028-033>037-041-042-045-046-049>053-240900-
CENTRAL PENNSYLVANIA

CITY           SKY/WX    TMP DP  RH WIND       PRES   REMARKS
BRADFORD       PTCLDY    56  53  90 CALM      30.06S
DUBOIS         CLEAR     64  57  78 CALM      30.04F
CLEARFIELD     CLEAR     61  56  83 CALM      30.05S
JOHNSTOWN      CLEAR     68  62  81 CALM      30.07S
ALTOONA        CLEAR     63  60  90 CALM      30.04S
STATE COLLEGE  PTCLDY    65  56  72 CALM      30.03R
WILLIAMSPORT   CLEAR     65  56  72 W5        29.98S
SELINSGROVE    PTCLDY    61  61 100 CALM      29.99S
FT INDIANTOWN  CLEAR     64  58  80 N2        29.97S
CAPITAL CITY   CLEAR     68  60  75 SW5       29.97S
HARRISBURG     PTCLDY    70  65  84 N5        29.96S
YORK           PTCLDY    66  64  93 CALM      29.97S
$$

PAZ038>040-043-044-047-048-054-055-060>062-067>071-240900-
EASTERN PENNSYLVANIA

CITY           SKY/WX    TMP DP  RH WIND       PRES   REMARKS
SCRANTON       CLEAR     67  57  70 VRB5      30.01R
MOUNT POCONO   CLEAR     68  32  26 N7        30.04S
ALLENTOWN      CLEAR     68  60  75 W3        29.96F
QUAKERTOWN*    SUNNY     64  63  94 CALM      29.98S
READING        CLEAR     69  66  90 CALM      29.96S
LANCASTER      FOG       66  65  96 CALM      29.97R VSB 1/2
COATESVILLE    SUNNY     72  64  78 CALM      29.99S
POTTSTOWN      CLEAR     67  66  97 CALM      29.98S
BLUE BELL      CLEAR     63  63 100 CALM      29.95S
DOYLESTOWN     CLEAR     68  62  81 CALM      29.95S
WILLOW GROVE   NOT AVBL
NORTH PHILA    CLEAR     73  63  70 N3        29.95S
PHILADELPHIA   PTCLDY    76  68  76 CALM      29.94S
$$



USA.gov is the U.S. government's official web portal to all federal, state and local government web resources and services.